Flag Weather past 2 weeks in Sharjah, Sharjah, United Arab Emirates

Now
84 °F

Passing clouds.


Feels Like: 86 °F
Forecast: 72 / 86 °F
Wind: 3 mph from South

Location: Sharjah International Airport

Current Time: Nov 23, 2014 at 1:13:55 PM

Latest Report: Nov 23, 2014 at 12:00 PM


Visibility: N/A

Pressure: 29.95 "Hg

Humidity: 51%

Dew point: 64 °F

Location of SharjahLocation

Historic Weather in Sharjah — Graph

°F

Sharjah temperature yesterday

Maximum temperature yesterday: 84 °F (at 1:00 PM)
Minimum temperature yesterday: 66 °F (at 5:00 AM)
Average temperature yesterday: 75 °F

Past Weeks' High & Low Weather Summary

 TemperatureHumidityPressure
High88 °F (Nov 14, 2:00 PM)88% (Nov 23, 5:00 AM)30.21 "Hg (Nov 23, 5:00 AM)
Low61 °F (Nov 10, 6:00 AM)16% (Nov 9, 2:00 PM)29.95 "Hg (Nov 17, 3:00 PM)
Average75 °F51%30.05 "Hg
* Reported Nov 8 12:00 Noon — Nov 23 12:00 Noon, Sharjah, Weather by CustomWeather, © 2014

Note: Actual official high and low records may vary slightly from our data, if they occured in-between our weather recording intervals... More about our weather records

Advertising

Sharjah weather history for previous 24 hours

 ConditionsComfort  
Time TempWeatherWind HumidityBarometerVisibility
12:00 PM
Nov 23
84 °FPassing clouds.3 mph51%29.95 "HgN/A
11:00 AM81 °FPassing clouds.5 mph66%29.98 "HgN/A
10:00 AM79 °FPassing clouds.5 mph61%30.01 "HgN/A
9:00 AM73 °FClear.5 mph69%30.01 "Hg5 mi
8:00 AM68 °FClear.3 mph78%29.98 "Hg4 mi
7:00 AM66 °FClear.5 mph78%29.98 "Hg4 mi
6:00 AM66 °FClear.6 mph78%29.95 "Hg5 mi
5:00 AM64 °FClear.6 mph88%29.95 "Hg5 mi
4:00 AM66 °FClear.5 mph83%29.95 "Hg5 mi
3:00 AM66 °FClear.3 mph83%29.95 "Hg5 mi
2:00 AM68 °FClear.5 mph83%29.95 "Hg10 mi
1:00 AM70 °FClear.3 mph78%29.95 "Hg10 mi
12:00 AM72 °FClear.3 mph73%29.98 "Hg10 mi
11:00 PM
Nov 22
72 °FClear.2 mph78%29.98 "Hg10 mi
10:00 PM73 °FClear.3 mph74%29.98 "Hg10 mi
9:00 PM75 °FClear.2 mph69%29.98 "Hg10 mi
8:00 PM77 °FClear.1 mph65%29.98 "Hg10 mi
7:00 PM77 °FClear.2 mph65%29.98 "Hg10 mi
6:00 PM79 °FClear.3 mph61%29.98 "Hg10 mi
5:00 PM81 °FPassing clouds.7 mph58%29.95 "HgN/A
4:00 PM82 °FPassing clouds.9 mph51%29.95 "HgN/A
3:00 PM82 °FPassing clouds.9 mph51%29.95 "HgN/A
2:00 PM82 °FPassing clouds.9 mph45%29.98 "HgN/A
1:00 PM84 °FPassing clouds.8 mph43%30.01 "HgN/A
Weather by CustomWeather, © 2014

See weather overviewHow to use our weather pages